NW0017 Weather Reports


time (UTC)temp
F
wind
direction
speed
knots
gust
knots
rain 1hr
in
rain 24hr
in
rain mn
in
humidity
%
barometer
mb
20260504232122 77 283 1.7 1.7 0.00 0.00 0.00 99 1007.9
20260504232022 77 284 1.7 1.7 0.00 0.00 0.00 99 1007.9
20260504231922 77 288 1.7 1.7 0.00 0.00 0.00 99 1007.9
20260504231822 77 299 1.7 1.7 0.00 0.00 0.00 99 1007.9
20260504231721 77 299 1.7 1.7 0.00 0.00 0.00 99 1007.9
20260504231621 77 299 1.7 1.7 0.00 0.00 0.00 99 1007.9
20260504231521 77 299 1.7 1.7 0.00 0.00 0.00 99 1007.9
20260504231421 77 301 1.7 0.9 0.00 0.00 0.00 99 1007.9
20260504231321 77 301 0.9 1.7 0.00 0.00 0.00 99 1007.9
20260504231222 77 301 1.7 1.7 0.00 0.00 0.00 99 1007.9
20260504231121 77 301 1.7 0.9 0.00 0.00 0.00 99 1007.9
20260504231021 77 301 0.9 1.7 0.00 0.00 0.00 99 1007.9
20260504230921 77 301 1.7 1.7 0.00 0.00 0.00 99 1007.8
20260504230821 77 301 1.7 2.6 0.00 0.00 0.00 99 1007.8
20260504230721 77 301 2.6 1.7 0.00 0.00 0.00 99 1007.8
20260504230621 77 301 1.7 1.7 0.00 0.00 0.00 99 1007.8
20260504230521 77 301 1.7 2.6 0.00 0.00 0.00 99 1007.8
20260504230421 77 305 1.7 1.7 0.00 0.00 0.00 99 1007.8
20260504230321 77 305 1.7 1.7 0.00 0.00 0.00 99 1007.8
20260504230221 77 307 1.7 1.7 0.00 0.00 0.00 99 1007.8
20260504230121 77 307 1.7 1.7 0.00 0.00 0.00 99 1007.8
20260504230021 77 307 1.7 1.7 0.00 0.00 0.00 99 1007.8
20260504225921 77 307 1.7 2.6 0.00 0.00 0.00 99 1007.8
20260504225821 77 305 2.6 1.7 0.00 0.00 0.00 99 1007.7
20260504225721 77 299 1.7 2.6 0.00 0.00 0.00 99 1007.7
20260504225621 77 299 2.6 2.6 0.00 0.00 0.00 99 1007.7
20260504225521 77 291 2.6 2.6 0.00 0.00 0.00 99 1007.7
20260504225421 77 289 2.6 2.6 0.00 0.00 0.00 99 1007.7
20260504225321 77 288 2.6 2.6 0.00 0.00 0.00 99 1007.6
20260504225221 77 288 2.6 2.6 0.00 0.00 0.00 99 1007.6
20260504225121 77 280 2.6 2.6 0.00 0.00 0.00 99 1007.6
20260504225021 77 280 2.6 3.5 0.00 0.00 0.00 99 1007.6
20260504224921 77 274 3.5 2.6 0.00 0.00 0.00 99 1007.6
20260504224821 77 276 2.6 2.6 0.00 0.00 0.00 99 1007.5
20260504224721 77 271 2.6 2.6 0.00 0.00 0.00 99 1007.5
20260504224621 77 260 2.6 2.6 0.00 0.00 0.00 99 1007.5
20260504224521 77 259 2.6 0.9 0.00 0.00 0.00 99 1007.5
20260504224421 77 250 2.6 2.6 0.00 0.00 0.00 99 1007.5
20260504224321 77 254 2.6 1.7 0.00 0.00 0.00 99 1007.5
20260504224221 77 243 1.7 2.6 0.00 0.00 0.00 99 1007.5
20260504224121 77 243 2.6 1.7 0.00 0.00 0.00 99 1007.5
20260504224021 77 236 1.7 1.7 0.00 0.00 0.00 99 1007.5
20260504223921 77 229 1.7 1.7 0.00 0.00 0.00 99 1007.5
20260504223821 77 226 1.7 0.9 0.00 0.00 0.00 99 1007.4
20260504223721 77 226 0.9 0.9 0.00 0.00 0.00 99 1007.5
20260504223621 77 226 0.9 0.9 0.00 0.00 0.00 99 1007.5
20260504223521 77 226 0.9 1.7 0.00 0.00 0.00 99 1007.5
20260504223421 77 226 0.0 0.9 0.00 0.00 0.00 99 1007.5
20260504223321 77 226 0.9 0.9 0.00 0.00 0.00 99 1007.5
20260504223221 77 226 0.9 1.7 0.00 0.00 0.00 99 1007.5
20260504223121 77 226 1.7 2.6 0.00 0.00 0.00 99 1007.5
20260504223033 77 226 2.6 1.7 0.00 0.00 0.00 99 1007.5
20260504222921 77 231 1.7 1.7 0.00 0.00 0.00 99 1007.5
20260504222821 77 231 1.7 1.7 0.00 0.00 0.00 99 1007.5
20260504222721 77 231 1.7 1.7 0.00 0.00 0.00 99 1007.5
20260504222621 77 234 1.7 1.7 0.00 0.00 0.00 99 1007.5
20260504222521 77 249 1.7 1.7 0.00 0.00 0.00 99 1007.5
20260504222421 77 249 1.7 1.7 0.00 0.00 0.00 99 1007.5
20260504222321 77 250 1.7 1.7 0.00 0.00 0.00 99 1007.5
20260504222221 77 250 1.7 1.7 0.00 0.00 0.00 99 1007.5
20260504222121 77 250 1.7 2.6 0.00 0.00 0.00 99 1007.5
20260504222021 77 255 2.6 2.6 0.00 0.00 0.00 99 1007.5
20260504221921 77 255 2.6 1.7 0.00 0.00 0.00 99 1007.5
20260504221821 77 264 1.7 1.7 0.00 0.00 0.00 99 1007.5
20260504221721 77 265 1.7 0.9 0.00 0.00 0.00 99 1007.5
20260504221621 77 246 0.9 0.9 0.00 0.00 0.00 99 1007.5
20260504221522 77 244 0.9 1.7 0.00 0.00 0.00 99 1007.5
20260504221421 77 227 0.9 0.9 0.00 0.00 0.00 99 1007.5
20260504221321 77 203 0.9 1.7 0.00 0.00 0.00 99 1007.5
20260504221221 77 203 1.7 1.7 0.00 0.00 0.00 99 1007.5
20260504221121 77 203 1.7 1.7 0.00 0.00 0.00 99 1007.5
20260504221021 77 202 1.7 2.6 0.00 0.00 0.00 99 1007.5
20260504220921 77 202 2.6 1.7 0.00 0.00 0.00 99 1007.5
20260504220821 77 211 1.7 1.7 0.00 0.00 0.00 99 1007.5
20260504220721 77 208 1.7 0.9 0.00 0.00 0.00 99 1007.5
20260504220621 77 201 0.9 1.7 0.00 0.00 0.00 99 1007.5
20260504220521 77 198 1.7 1.7 0.00 0.00 0.00 99 1007.5
20260504220421 77 198 0.9 1.7 0.00 0.00 0.00 99 1007.5
20260504220321 77 203 1.7 1.7 0.00 0.00 0.00 99 1007.5
20260504220221 77 195 1.7 1.7 0.00 0.00 0.00 99 1007.5
20260504220121 77 196 1.7 1.7 0.00 0.00 0.00 99 1007.5
20260504220050 77 196 1.7 1.7 0.00 0.00 0.00 99 1007.5
20260504215921 77 189 1.7 1.7 0.00 0.00 0.00 99 1007.5
20260504215821 77 196 1.7 0.9 0.00 0.00 0.00 99 1007.5
20260504215721 77 194 0.9 1.7 0.00 0.00 0.00 99 1007.5
20260504215621 77 194 1.7 1.7 0.00 0.00 0.00 99 1007.5
20260504215521 77 193 1.7 0.9 0.00 0.00 0.00 99 1007.5
20260504215421 77 201 1.7 2.6 0.00 0.00 0.00 99 1007.5
20260504215321 77 205 2.6 2.6 0.00 0.00 0.00 99 1007.5
20260504215221 77 207 2.6 1.7 0.00 0.00 0.00 99 1007.5
20260504215121 77 204 1.7 1.7 0.00 0.00 0.00 99 1007.5
20260504215021 77 197 1.7 1.7 0.00 0.00 0.00 99 1007.5
20260504214921 77 213 1.7 1.7 0.00 0.00 0.00 99 1007.5
20260504214821 77 214 1.7 0.9 0.00 0.00 0.00 99 1007.5
20260504214721 77 208 0.9 0.9 0.00 0.00 0.00 99 1007.5
20260504214621 77 208 0.9 0.9 0.00 0.00 0.00 99 1007.5
20260504214532 77 208 0.9 1.7 0.00 0.00 0.00 99 1007.5
20260504214421 77 202 0.9 0.9 0.00 0.00 0.00 99 1007.5
20260504214321 77 202 0.9 0.9 0.00 0.00 0.00 99 1007.5
20260504214222 77 202 0.9 0.9 0.00 0.00 0.00 99 1007.5
20260504214121 77 202 0.9 0.9 0.00 0.00 0.00 99 1007.5
20260504214021 77 202 0.9 1.7 0.00 0.00 0.00 99 1007.5
20260504213921 77 198 1.7 1.7 0.00 0.00 0.00 99 1007.5
20260504213821 77 186 1.7 1.7 0.00 0.00 0.00 99 1007.5
20260504213721 77 207 1.7 1.7 0.00 0.00 0.00 99 1007.5
20260504213621 77 219 1.7 1.7 0.00 0.00 0.00 99 1007.6
20260504213521 77 203 1.7 1.7 0.00 0.00 0.00 99 1007.6
20260504213421 77 224 1.7 0.9 0.00 0.00 0.00 99 1007.6
20260504213321 77 224 0.9 0.9 0.00 0.00 0.00 99 1007.6
20260504213221 77 224 0.9 1.7 0.00 0.00 0.00 99 1007.6
20260504213121 77 225 1.7 1.7 0.00 0.00 0.00 99 1007.6
20260504213028 77 224 1.7 1.7 0.00 0.00 0.00 99 1007.6
20260504212921 77 227 1.7 1.7 0.00 0.00 0.00 99 1007.6
20260504212821 77 233 1.7 2.6 0.00 0.00 0.00 99 1007.6
20260504212721 77 227 2.6 1.7 0.00 0.00 0.00 99 1007.6
20260504212621 77 228 1.7 2.6 0.00 0.00 0.00 99 1007.6
20260504212521 77 227 2.6 1.7 0.00 0.00 0.00 99 1007.6
20260504212421 77 228 2.6 1.7 0.00 0.00 0.00 99 1007.6
20260504212321 77 250 1.7 1.7 0.00 0.00 0.00 99 1007.6
20260504212221 77 250 1.7 0.9 0.00 0.00 0.00 99 1007.6
20260504212121 77 250 0.9 1.7 0.00 0.00 0.00 99 1007.6
20260504212021 77 250 1.7 1.7 0.00 0.00 0.00 99 1007.6
20260504211921 77 250 1.7 0.9 0.00 0.00 0.00 99 1007.7
20260504211821 77 265 0.9 0.9 0.00 0.00 0.00 99 1007.7
20260504211721 77 265 0.9 1.7 0.00 0.00 0.00 99 1007.7
20260504211621 77 265 1.7 1.7 0.00 0.00 0.00 99 1007.7
20260504211522 77 265 1.7 0.9 0.00 0.00 0.00 99 1007.7
20260504211420 77 265 1.7 1.7 0.00 0.00 0.00 99 1007.7
20260504211321 77 265 1.7 1.7 0.00 0.00 0.00 99 1007.7
20260504211221 77 265 1.7 1.7 0.00 0.00 0.00 99 1007.7
20260504211120 77 265 1.7 1.7 0.00 0.00 0.00 99 1007.7
20260504211021 77 265 1.7 1.7 0.00 0.00 0.00 99 1007.7
20260504210920 77 265 1.7 1.7 0.00 0.00 0.00 99 1007.7
20260504210820 77 264 1.7 0.9 0.00 0.00 0.00 99 1007.7
20260504210720 77 264 0.9 0.0 0.00 0.00 0.00 99 1007.7
20260504210620 77 264 0.0 0.0 0.00 0.00 0.00 99 1007.7
20260504210521 77 264 0.0 0.0 0.00 0.00 0.00 99 1007.7
20260504210422 77 264 0.0 0.0 0.00 0.00 0.00 99 1007.7
20260504210320 77 264 0.0 0.9 0.00 0.00 0.00 99 1007.7
20260504210220 77 264 0.9 0.9 0.00 0.00 0.00 99 1007.7
20260504210120 77 264 0.9 0.9 0.00 0.00 0.00 99 1007.7
20260504210020 78 263 0.9 0.9 0.00 0.00 0.00 99 1007.7
20260504205920 77 258 0.9 0.9 0.00 0.00 0.00 99 1007.7
20260504205820 77 257 0.9 1.7 0.00 0.00 0.00 99 1007.7
20260504205720 77 257 1.7 0.9 0.00 0.00 0.00 99 1007.7
20260504205620 78 241 0.9 0.0 0.00 0.00 0.00 99 1007.7
20260504205520 78 240 0.0 0.0 0.00 0.00 0.00 99 1007.7
20260504205420 78 240 0.0 0.0 0.00 0.00 0.00 99 1007.7
20260504205320 78 240 0.0 0.0 0.00 0.00 0.00 99 1007.7
20260504205220 78 240 0.0 0.0 0.00 0.00 0.00 99 1007.7
20260504205120 78 240 0.0 0.0 0.00 0.00 0.00 99 1007.7
20260504205020 78 240 0.0 0.0 0.00 0.00 0.00 99 1007.7
20260504204920 78 240 0.0 0.0 0.00 0.00 0.00 99 1007.6
20260504204820 78 240 0.0 0.0 0.00 0.00 0.00 99 1007.6
20260504204720 78 240 0.0 0.0 0.00 0.00 0.00 99 1007.6
20260504204620 78 240 0.0 0.0 0.00 0.00 0.00 99 1007.6
20260504204526 78 240 0.0 0.0 0.00 0.00 0.00 99 1007.6
20260504204420 78 240 0.0 0.0 0.00 0.00 0.00 99 1007.6
20260504204320 78 240 0.0 0.0 0.00 0.00 0.00 99 1007.6
20260504204220 78 240 0.0 0.0 0.00 0.00 0.00 99 1007.6
20260504204120 78 240 0.0 0.0 0.00 0.00 0.00 99 1007.6
20260504204020 78 240 0.0 0.9 0.00 0.00 0.00 99 1007.6
20260504203920 78 240 0.9 0.9 0.00 0.00 0.00 99 1007.6
20260504203820 78 240 0.9 0.0 0.00 0.00 0.00 99 1007.6
20260504203720 78 240 0.0 0.0 0.00 0.00 0.00 99 1007.6
20260504203620 78 240 0.0 0.0 0.00 0.00 0.00 99 1007.5
20260504203520 78 240 0.0 0.9 0.00 0.00 0.00 99 1007.5
20260504203420 78 240 0.0 0.0 0.00 0.00 0.00 99 1007.5
20260504203320 78 240 0.0 0.0 0.00 0.00 0.00 99 1007.5
20260504203220 78 240 0.0 0.0 0.00 0.00 0.00 99 1007.5
20260504203120 78 240 0.0 0.9 0.00 0.00 0.00 99 1007.5
20260504203032 78 240 0.9 1.7 0.00 0.00 0.00 99 1007.5
20260504202920 78 240 1.7 0.9 0.00 0.00 0.00 99 1007.5
20260504202820 78 240 0.9 0.0 0.00 0.00 0.00 99 1007.5
20260504202720 78 240 0.0 0.0 0.00 0.00 0.00 99 1007.5
20260504202620 78 240 0.0 0.9 0.00 0.00 0.00 99 1007.5
20260504202520 78 240 0.9 1.7 0.00 0.00 0.00 99 1007.5
20260504202420 78 240 0.9 1.7 0.00 0.00 0.00 99 1007.5
20260504202320 78 240 1.7 0.9 0.00 0.00 0.00 99 1007.5
20260504202220 78 240 0.9 1.7 0.00 0.00 0.00 99 1007.5
20260504202120 78 240 1.7 1.7 0.00 0.00 0.00 99 1007.5
20260504202020 78 240 1.7 1.7 0.00 0.00 0.00 99 1007.6
20260504201920 78 240 1.7 2.6 0.00 0.00 0.00 99 1007.6
20260504201820 78 240 2.6 3.5 0.00 0.00 0.00 99 1007.6
20260504201720 78 241 3.5 2.6 0.00 0.00 0.00 99 1007.6
20260504201620 78 257 2.6 2.6 0.00 0.00 0.00 99 1007.6
20260504201542 78 257 2.6 0.0 0.00 0.00 0.00 99 1007.6
20260504201420 78 257 2.6 1.7 0.00 0.00 0.00 99 1007.6
20260504201320 78 267 1.7 1.7 0.00 0.00 0.00 99 1007.6
20260504201220 78 267 1.7 0.0 0.00 0.00 0.00 99 1007.6
20260504201120 78 267 0.0 0.0 0.00 0.00 0.00 99 1007.6
20260504201020 78 267 0.0 0.0 0.00 0.00 0.00 99 1007.6
20260504200920 78 267 0.0 0.0 0.00 0.00 0.00 99 1007.7
20260504200820 78 267 0.0 0.0 0.00 0.00 0.00 99 1007.7
20260504200720 78 267 0.0 0.0 0.00 0.00 0.00 99 1007.7
20260504200620 78 267 0.0 0.0 0.00 0.00 0.00 99 1007.7
20260504200520 78 267 0.0 0.0 0.00 0.00 0.00 99 1007.7
20260504200420 78 267 0.0 0.0 0.00 0.00 0.00 99 1007.7
20260504200320 78 267 0.0 0.0 0.00 0.00 0.00 99 1007.8
20260504200220 78 267 0.0 0.0 0.00 0.00 0.00 99 1007.8
20260504200120 78 267 0.0 0.0 0.00 0.00 0.00 99 1007.8
20260504200022 78 267 0.0 0.0 0.00 0.00 0.00 99 1007.8
20260504195920 78 267 0.0 0.0 0.00 0.00 0.00 99 1007.8
20260504195820 78 267 0.0 0.0 0.00 0.00 0.00 99 1007.8
20260504195720 78 267 0.0 0.0 0.00 0.00 0.00 99 1007.8
20260504195620 78 267 0.0 0.0 0.00 0.00 0.00 99 1007.9
20260504195520 78 266 0.0 0.0 0.00 0.00 0.00 99 1007.9
20260504195420 78 267 0.0 0.0 0.00 0.00 0.00 99 1007.9
20260504195320 78 267 0.0 0.0 0.00 0.00 0.00 99 1007.9
20260504195220 78 267 0.0 0.0 0.00 0.00 0.00 99 1008.0
20260504195120 78 267 0.0 0.0 0.00 0.00 0.00 99 1008.0
20260504195020 78 267 0.0 0.0 0.00 0.00 0.00 99 1008.0
20260504194920 78 267 0.0 0.0 0.00 0.00 0.00 99 1008.0
20260504194820 78 267 0.0 0.0 0.00 0.00 0.00 99 1008.0
20260504194720 78 267 0.0 0.0 0.00 0.00 0.00 99 1008.0
20260504194620 78 267 0.0 0.0 0.00 0.00 0.00 99 1008.1
20260504194521 78 267 0.0 0.0 0.00 0.00 0.00 99 1008.1
20260504194420 78 263 0.0 0.0 0.00 0.00 0.00 99 1008.1
20260504194320 78 263 0.0 0.0 0.00 0.00 0.00 99 1008.1
20260504194220 78 263 0.0 0.0 0.00 0.00 0.00 99 1008.1
20260504194120 78 263 0.0 0.0 0.00 0.00 0.00 99 1008.1
20260504194020 78 263 0.0 0.0 0.00 0.00 0.00 99 1008.1
20260504193920 78 263 0.0 0.0 0.00 0.00 0.00 99 1008.2
20260504193820 78 263 0.0 0.0 0.00 0.00 0.00 99 1008.2
20260504193720 78 263 0.0 0.0 0.00 0.00 0.00 99 1008.2
20260504193620 78 263 0.0 0.0 0.00 0.00 0.00 99 1008.2
20260504193520 78 263 0.0 0.0 0.00 0.00 0.00 99 1008.2
20260504193420 78 263 0.0 0.0 0.00 0.00 0.00 99 1008.2
20260504193320 78 263 0.0 0.0 0.00 0.00 0.00 99 1008.2
20260504193220 78 270 0.0 0.0 0.00 0.00 0.00 99 1008.2
20260504193120 78 271 0.0 0.0 0.00 0.00 0.00 99 1008.2
20260504193023 78 271 0.0 0.0 0.00 0.00 0.00 99 1008.3
20260504192920 78 277 0.0 0.0 0.00 0.00 0.00 99 1008.3
20260504192820 78 277 0.0 0.0 0.00 0.00 0.00 99 1008.3
20260504192720 78 277 0.0 0.0 0.00 0.00 0.00 99 1008.3
20260504192620 78 283 0.0 0.0 0.00 0.00 0.00 99 1008.3
20260504192520 78 283 0.0 0.0 0.00 0.00 0.00 99 1008.3
20260504192420 78 283 0.0 0.0 0.00 0.00 0.00 99 1008.3
20260504192320 78 283 0.0 0.0 0.00 0.00 0.00 99 1008.4
20260504192220 78 283 0.0 0.0 0.00 0.00 0.00 99 1008.4
20260504192120 78 283 0.0 0.0 0.00 0.00 0.00 99 1008.4
20260504192020 78 283 0.0 0.0 0.00 0.00 0.00 99 1008.4
20260504191920 78 283 0.0 0.0 0.00 0.00 0.00 99 1008.4
20260504191820 78 283 0.0 0.0 0.00 0.00 0.00 99 1008.4
20260504191720 78 283 0.0 0.0 0.00 0.00 0.00 99 1008.4
20260504191620 78 283 0.0 0.0 0.00 0.00 0.00 99 1008.4
20260504191520 78 283 0.0 1.7 0.00 0.00 0.00 99 1008.4
20260504191420 78 283 0.0 0.0 0.00 0.00 0.00 99 1008.4
20260504191319 78 283 0.0 0.0 0.00 0.00 0.00 99 1008.4
20260504191220 78 283 0.0 0.9 0.00 0.00 0.00 99 1008.4
20260504191119 78 283 0.9 0.9 0.00 0.00 0.00 99 1008.4
20260504191019 78 283 0.9 0.9 0.00 0.00 0.00 99 1008.4
20260504190919 78 283 0.9 1.7 0.00 0.00 0.00 99 1008.4
20260504190820 78 283 1.7 1.7 0.00 0.00 0.00 99 1008.4
20260504190719 78 283 1.7 1.7 0.00 0.00 0.00 99 1008.4
20260504190619 78 283 1.7 0.9 0.00 0.00 0.00 99 1008.5
20260504190519 78 283 0.9 0.9 0.00 0.00 0.00 99 1008.5
20260504190419 78 283 0.9 0.9 0.00 0.00 0.00 99 1008.5
20260504190319 78 283 0.9 1.7 0.00 0.00 0.00 99 1008.5
20260504190219 78 283 1.7 1.7 0.00 0.00 0.00 99 1008.5
20260504190119 78 283 1.7 1.7 0.00 0.00 0.00 99 1008.5
20260504190019 78 283 1.7 1.7 0.00 0.00 0.00 99 1008.5
20260504185919 78 283 1.7 2.6 0.00 0.00 0.00 99 1008.5
20260504185819 78 288 2.6 2.6 0.00 0.00 0.00 99 1008.5
20260504185719 78 288 2.6 2.6 0.00 0.00 0.00 99 1008.5
20260504185619 78 288 2.6 2.6 0.00 0.00 0.00 99 1008.6
20260504185519 78 288 2.6 0.0 0.00 0.00 0.00 99 1008.6
20260504185419 78 289 1.7 1.7 0.00 0.00 0.00 99 1008.6
20260504185319 78 289 1.7 0.0 0.00 0.00 0.00 99 1008.6
20260504185219 78 289 0.0 0.0 0.00 0.00 0.00 99 1008.6
20260504185119 78 297 0.0 0.0 0.00 0.00 0.00 99 1008.6
20260504185019 78 297 0.0 0.0 0.00 0.00 0.00 99 1008.6
20260504184919 78 298 0.0 0.0 0.00 0.00 0.00 99 1008.6
20260504184819 78 298 0.0 0.0 0.00 0.00 0.00 99 1008.6
20260504184719 78 298 0.0 0.0 0.00 0.00 0.00 99 1008.6
20260504184619 78 298 0.0 0.0 0.00 0.00 0.00 99 1008.6
20260504184519 78 298 0.0 0.9 0.00 0.00 0.00 99 1008.6
20260504184419 78 298 0.0 0.0 0.00 0.00 0.00 99 1008.6
20260504184319 78 298 0.0 0.0 0.00 0.00 0.00 99 1008.7
20260504184219 78 298 0.0 0.0 0.00 0.00 0.00 99 1008.7
20260504184119 78 298 0.0 0.0 0.00 0.00 0.00 99 1008.7
20260504184019 78 298 0.0 0.0 0.00 0.00 0.00 99 1008.7
20260504183919 78 298 0.0 0.0 0.00 0.00 0.00 99 1008.7
20260504183819 78 298 0.0 0.0 0.00 0.00 0.00 99 1008.7
20260504183719 78 298 0.0 0.0 0.00 0.00 0.00 99 1008.7
20260504183619 78 298 0.0 0.0 0.00 0.00 0.00 99 1008.7
20260504183519 78 298 0.0 0.9 0.00 0.00 0.00 99 1008.7
20260504183419 78 298 0.0 0.0 0.00 0.00 0.00 99 1008.7
20260504183319 78 298 0.0 0.9 0.00 0.00 0.00 99 1008.7
20260504183219 78 298 0.9 1.7 0.00 0.00 0.00 99 1008.7
20260504183119 78 298 1.7 1.7 0.00 0.00 0.00 99 1008.7
20260504183025 78 298 1.7 1.7 0.00 0.00 0.00 99 1008.7
20260504182919 78 298 1.7 1.7 0.00 0.00 0.00 99 1008.7
20260504182819 78 298 1.7 1.7 0.00 0.00 0.00 99 1008.7
20260504182719 78 298 1.7 1.7 0.00 0.00 0.00 99 1008.8
20260504182619 78 298 1.7 1.7 0.00 0.00 0.00 99 1008.8
20260504182519 78 298 1.7 0.0 0.00 0.00 0.00 99 1008.8
20260504182419 78 298 1.7 0.9 0.00 0.00 0.00 99 1008.8
20260504182319 78 280 0.9 0.0 0.00 0.00 0.00 99 1008.8
20260504182219 78 274 0.0 0.0 0.00 0.00 0.00 99 1008.8
20260504182119 78 274 0.0 0.0 0.00 0.00 0.00 99 1008.9
20260504182019 78 274 0.0 0.0 0.00 0.00 0.00 99 1008.9
20260504181919 78 274 0.0 0.0 0.00 0.00 0.00 99 1008.9
20260504181819 78 274 0.0 0.0 0.00 0.00 0.00 99 1008.9
20260504181719 78 274 0.0 0.0 0.00 0.00 0.00 99 1008.9
20260504181619 78 274 0.0 0.0 0.00 0.00 0.00 99 1008.9
20260504181525 78 274 0.0 0.0 0.00 0.00 0.00 99 1008.9
20260504181419 78 274 0.0 0.0 0.00 0.00 0.00 99 1008.9
20260504181319 78 274 0.0 0.0 0.00 0.00 0.00 99 1009.0
20260504181219 78 274 0.0 0.0 0.00 0.00 0.00 99 1009.0
20260504181119 78 274 0.0 0.0 0.00 0.00 0.00 99 1009.0
20260504181019 78 274 0.0 0.0 0.00 0.00 0.00 99 1009.0
20260504180919 78 274 0.0 0.0 0.00 0.00 0.00 99 1009.0
20260504180819 78 274 0.0 0.0 0.00 0.00 0.00 99 1009.0
20260504180719 78 274 0.0 0.0 0.00 0.00 0.00 99 1009.0
20260504180619 78 274 0.0 0.0 0.00 0.00 0.00 99 1009.0
20260504180519 78 274 0.0 0.0 0.00 0.00 0.00 99 1009.1
20260504180419 78 274 0.0 0.0 0.00 0.00 0.00 99 1009.1
20260504180319 78 274 0.0 0.0 0.00 0.00 0.00 99 1009.1
20260504180219 78 274 0.0 0.0 0.00 0.00 0.00 99 1009.1
20260504180119 78 274 0.0 0.0 0.00 0.00 0.00 99 1009.1
20260504180021 78 274 0.0 0.0 0.00 0.00 0.00 99 1009.1
20260504175919 78 274 0.0 0.0 0.00 0.00 0.00 99 1009.1
20260504175819 78 274 0.0 0.0 0.00 0.00 0.00 99 1009.1
20260504175719 78 274 0.0 0.0 0.00 0.00 0.00 99 1009.1
20260504175619 78 274 0.0 0.0 0.00 0.00 0.00 99 1009.1
20260504175519 78 274 0.0 0.9 0.00 0.00 0.00 99 1009.1
20260504175419 78 274 0.0 0.0 0.00 0.00 0.00 99 1009.1
20260504175319 78 274 0.0 0.0 0.00 0.00 0.00 99 1009.2
20260504175219 78 274 0.0 0.0 0.00 0.00 0.00 99 1009.2
20260504175119 78 274 0.0 0.0 0.00 0.00 0.00 99 1009.2
20260504175019 78 274 0.0 0.9 0.00 0.00 0.00 99 1009.2
20260504174919 78 274 0.9 0.0 0.00 0.00 0.00 99 1009.2
20260504174819 78 274 0.0 0.0 0.00 0.00 0.00 99 1009.3
20260504174719 78 274 0.0 0.0 0.00 0.00 0.00 99 1009.3
20260504174619 78 274 0.0 0.0 0.00 0.00 0.00 99 1009.3
20260504174519 78 274 0.0 1.7 0.00 0.00 0.00 99 1009.3
20260504174419 78 274 0.0 0.0 0.00 0.00 0.00 99 1009.3
20260504174319 78 274 0.0 0.0 0.00 0.00 0.00 99 1009.3
20260504174219 78 274 0.0 0.0 0.00 0.00 0.00 99 1009.3
20260504174119 78 274 0.0 0.9 0.00 0.00 0.00 99 1009.3
20260504174019 78 274 0.9 0.9 0.00 0.00 0.00 99 1009.3
20260504173919 78 274 0.9 0.9 0.00 0.00 0.00 99 1009.4
20260504173819 78 274 0.9 1.7 0.00 0.00 0.00 99 1009.4
20260504173719 78 274 1.7 1.7 0.00 0.00 0.00 99 1009.4
20260504173619 78 274 1.7 1.7 0.00 0.00 0.00 99 1009.4
20260504173519 79 274 1.7 1.7 0.00 0.00 0.00 99 1009.4
20260504173419 79 274 1.7 1.7 0.00 0.00 0.00 99 1009.4
20260504173319 79 274 1.7 2.6 0.00 0.00 0.00 99 1009.4
20260504173219 79 274 2.6 1.7 0.00 0.00 0.00 99 1009.4
20260504173119 79 274 1.7 1.7 0.00 0.00 0.00 99 1009.4
20260504173021 79 274 1.7 1.7 0.00 0.00 0.00 99 1009.4
20260504172919 79 274 1.7 1.7 0.00 0.00 0.00 99 1009.4
20260504172819 79 274 1.7 1.7 0.00 0.00 0.00 99 1009.4
20260504172719 79 274 1.7 2.6 0.00 0.00 0.00 99 1009.4
20260504172619 79 275 2.6 1.7 0.00 0.00 0.00 99 1009.4
20260504172519 79 276 1.7 2.6 0.00 0.00 0.00 99 1009.5
20260504172419 79 276 2.6 2.6 0.00 0.00 0.00 99 1009.5
20260504172319 79 275 2.6 1.7 0.00 0.00 0.00 99 1009.5
20260504172219 79 276 1.7 1.7 0.00 0.00 0.00 99 1009.5
20260504172119 79 276 1.7 1.7 0.00 0.00 0.00 99 1009.5
20260504172018 79 279 1.7 1.7 0.00 0.00 0.00 99 1009.6
20260504171919 79 282 1.7 1.7 0.00 0.00 0.00 99 1009.6
20260504171819 79 283 1.7 2.6 0.00 0.00 0.00 99 1009.6
20260504171719 79 280 2.6 2.6 0.00 0.00 0.00 99 1009.6
20260504171618 79 293 2.6 2.6 0.00 0.00 0.00 99 1009.5
20260504171518 79 294 2.6 2.6 0.00 0.00 0.00 99 1009.5
20260504171419 79 294 2.6 1.7 0.00 0.00 0.00 99 1009.5
20260504171318 79 294 1.7 2.6 0.00 0.00 0.00 99 1009.5
20260504171219 79 294 2.6 2.6 0.00 0.00 0.00 99 1009.5
20260504171118 79 296 2.6 3.5 0.00 0.00 0.00 99 1009.5
20260504171018 79 297 3.5 2.6 0.00 0.00 0.00 99 1009.5
20260504170818 79 275 1.7 1.7 0.00 0.00 0.00 99 1009.5
20260504170718 79 275 1.7 1.7 0.00 0.00 0.00 99 1009.5
20260504170618 79 275 1.7 2.6 0.00 0.00 0.00 99 1009.5
20260504170518 79 274 2.6 2.6 0.00 0.00 0.00 99 1009.6
20260504170418 79 274 2.6 1.7 0.00 0.00 0.00 99 1009.6
20260504170318 79 274 1.7 2.6 0.00 0.00 0.00 99 1009.6
20260504170218 79 277 2.6 2.6 0.00 0.00 0.00 99 1009.6
20260504170118 79 277 2.6 1.7 0.00 0.00 0.00 99 1009.6
20260504160418 80 273 2.6 1.7 0.00 0.00 0.00 99 1009.8
20260504160318 80 273 1.7 1.7 0.00 0.00 0.00 99 1009.7
20260504160218 80 272 1.7 2.6 0.00 0.00 0.00 99 1009.7
20260504160118 80 272 2.6 2.6 0.00 0.00 0.00 99 1009.7
20260504151117 81 272 0.9 0.9 0.00 0.00 0.00 99 1009.2
20260504151017 81 272 0.9 0.9 0.00 0.00 0.00 99 1009.2
20260504150917 81 272 0.9 0.9 0.00 0.00 0.00 99 1009.2
20260504150817 81 272 0.9 0.9 0.00 0.00 0.00 99 1009.2
20260504150717 81 272 0.9 0.9 0.00 0.00 0.00 99 1009.2
20260504150617 81 272 0.9 0.9 0.00 0.00 0.00 99 1009.2
20260504150518 81 272 0.9 2.6 0.00 0.00 0.00 99 1009.1
20260504150417 81 272 0.9 1.7 0.00 0.00 0.00 99 1009.1
20260504150317 81 272 1.7 0.9 0.00 0.00 0.00 99 1009.1
20260504150217 81 272 0.9 1.7 0.00 0.00 0.00 99 1009.1
20260504150117 81 272 1.7 1.7 0.00 0.00 0.00 99 1009.1
20260504141317 82 182 0.9 0.0 0.00 0.00 0.00 99 1008.4
20260504141217 82 182 0.0 0.0 0.00 0.00 0.00 99 1008.4
20260504141117 82 132 0.0 0.0 0.00 0.00 0.00 99 1008.4
20260504141017 82 106 0.0 0.0 0.00 0.00 0.00 99 1008.4
20260504140917 82 106 0.0 0.0 0.00 0.00 0.00 99 1008.3
20260504140817 82 106 0.0 0.0 0.00 0.00 0.00 99 1008.3
20260504140732 82 106 0.0 0.0 0.00 0.00 0.00 99 1008.3
20260504140727 82 106 0.0 0.0 0.00 0.00 0.00 99 1008.3
20260504140547 82 106 0.0 0.0 0.00 0.00 0.00 99 1008.3
20260504140531 82 106 0.0 0.0 0.00 0.00 0.00 99 1008.3
20260504140529 82 106 0.0 0.0 0.00 0.00 0.00 99 1008.3
20260504140118 82 106 0.0 0.0 0.00 0.00 0.00 99 1008.3
20260504140112 82 106 0.0 0.0 0.00 0.00 0.00 99 1008.3
20260504140107 82 106 0.0 0.0 0.00 0.00 0.00 99 1008.2
20260504140105 82 106 0.0 0.0 0.00 0.00 0.00 99 1008.2
20260504130806 83 106 0.0 0.0 0.00 0.00 0.00 96 1007.5
20260504130800 83 106 0.0 0.0 0.00 0.00 0.00 97 1007.5
20260504110705 86 62 2.6 1.7 0.00 0.00 0.00 90 1006.3
20260504110643 86 78 1.7 1.7 0.00 0.00 0.00 90 1006.3
20260504110554 86 54 1.7 1.7 0.00 0.00 0.00 90 1006.3
20260504110404 86 54 1.7 1.7 0.00 0.00 0.00 90 1006.3
20260504110307 86 57 2.6 2.6 0.00 0.00 0.00 90 1006.3
20260504110107 86 71 2.6 2.6 0.00 0.00 0.00 90 1006.3
20260504110105 86 39 2.6 3.5 0.00 0.00 0.00 90 1006.3
20260504100354 88 354 0.9 0.0 0.00 0.00 0.00 87 1006.0
20260504100244 88 351 0.0 0.0 0.00 0.00 0.00 87 1006.0
20260504090127 89 282 0.0 0.9 0.00 0.00 0.00 84 1005.6
20260504080808 83 263 0.0 1.7 0.00 0.00 0.00 97 1006.6
20260504080706 83 260 1.7 0.9 0.00 0.00 0.00 98 1006.6
20260504080606 83 291 0.9 0.9 0.00 0.00 0.00 99 1006.6
20260504080506 83 257 0.9 0.0 0.00 0.00 0.00 99 1006.6
20260504080406 83 253 0.0 0.0 0.00 0.00 0.00 98 1006.6
20260504080306 83 253 0.0 0.0 0.00 0.00 0.00 99 1006.6
20260504080206 82 177 0.0 0.0 0.00 0.00 0.00 99 1006.6
20260504080106 82 177 0.0 0.0 0.00 0.00 0.00 98 1006.7
20260504070405 89 20 5.2 5.2 0.00 0.00 0.00 86 1007.6
20260504070305 89 5 5.2 6.1 0.00 0.00 0.00 86 1007.7
20260504070205 89 23 6.1 6.1 0.00 0.00 0.00 86 1007.7
20260504070105 89 0 6.1 5.2 0.00 0.00 0.00 86 1007.7
20260504060205 89 0 4.3 6.1 0.00 0.00 0.00 86 1008.7
20260504060105 89 0 6.1 7.0 0.00 0.00 0.00 85 1008.7
20260504050704 81 342 3.5 3.5 0.00 0.00 0.00 96 1010.0
20260504050604 81 355 3.5 2.6 0.00 0.00 0.00 96 1010.0
20260504050504 81 355 2.6 3.5 0.00 0.00 0.00 96 1010.0
20260504050404 81 355 4.3 5.2 0.00 0.00 0.00 95 1010.1
20260504050304 81 22 5.2 4.3 0.00 0.00 0.00 96 1010.1
20260504050204 81 6 4.3 3.5 0.00 0.00 0.00 98 1010.1
20260504050123 81 344 0.9 0.9 0.00 0.00 0.00 98 1010.2
20260504045904 81 326 0.9 2.6 0.00 0.00 0.00 97 1010.2
20260504045804 81 328 2.6 3.5 0.00 0.00 0.00 98 1010.2
20260504045704 81 321 3.5 2.6 0.00 0.00 0.00 98 1010.2
20260504045604 80 330 2.6 2.6 0.00 0.00 0.00 99 1010.3
20260504045504 80 328 2.6 6.1 0.00 0.00 0.00 98 1010.3
20260504045404 80 353 3.5 3.5 0.00 0.00 0.00 98 1010.3
20260504045304 80 355 3.5 2.6 0.00 0.00 0.00 99 1010.3
20260504045204 80 355 2.6 3.5 0.00 0.00 0.00 98 1010.3
20260504045104 80 350 3.5 4.3 0.00 0.00 0.00 99 1010.3
20260504045004 80 348 4.3 4.3 0.00 0.00 0.00 99 1010.3
20260504044904 80 351 4.3 3.5 0.00 0.00 0.00 99 1010.3
20260504044804 80 335 3.5 3.5 0.00 0.00 0.00 99 1010.3
20260504044704 80 0 3.5 6.1 0.00 0.00 0.00 99 1010.3
20260504044604 80 18 6.1 5.2 0.00 0.00 0.00 99 1010.3
20260504044523 80 15 5.2 9.6 0.00 0.00 0.00 99 1010.3
20260504044404 80 35 7.0 7.0 0.00 0.00 0.00 99 1010.3
20260504044304 80 30 7.0 6.1 0.00 0.00 0.00 99 1010.3
20260504044206 80 47 6.1 5.2 0.00 0.00 0.00 99 1010.3
20260504044106 80 44 5.2 7.0 0.00 0.00 0.00 99 1010.3
20260504044004 80 9 7.0 4.3 0.00 0.00 0.00 99 1010.3
20260504043911 80 231 4.3 3.5 0.00 0.00 0.00 99 1010.2
20260504043804 80 330 3.5 6.1 0.00 0.00 0.00 99 1010.2
20260504043704 80 328 6.1 8.7 0.00 0.00 0.00 99 1010.2
20260504043604 80 328 8.7 7.0 0.00 0.00 0.00 99 1010.2
20260504043504 80 338 7.0 9.6 0.00 0.00 0.00 99 1010.2
20260504043404 80 353 6.1 7.0 0.00 0.00 0.00 99 1010.2
20260504043304 80 355 7.0 10.4 0.00 0.00 0.00 99 1010.2
20260504043204 80 355 10.4 8.7 0.00 0.00 0.00 99 1010.2
20260504043104 80 355 8.7 12.2 0.00 0.00 0.00 99 1010.2
20260504043010 80 298 12.2 9.6 0.00 0.00 0.00 99 1010.2
20260504042904 81 5 9.6 11.3 0.00 0.00 0.00 99 1010.1
20260504042804 81 22 11.3 13.0 0.00 0.00 0.00 99 1010.1
20260504042704 82 55 13.0 15.6 0.00 0.00 0.00 98 1010.1
20260504042604 83 50 15.6 20.0 0.00 0.00 0.00 96 1010.0
20260504042504 85 78 20.0 1.7 0.00 0.00 0.00 93 1010.0
20260504042404 86 103 10.4 7.0 0.00 0.00 0.00 91 1009.9
20260504042304 87 108 7.0 7.0 0.00 0.00 0.00 87 1009.8
20260504042204 87 60 7.0 7.8 0.00 0.00 0.00 85 1009.8
20260504042104 88 44 7.8 7.0 0.00 0.00 0.00 84 1009.7
20260504042004 88 53 7.0 7.0 0.00 0.00 0.00 83 1009.7
20260504041905 89 60 7.0 5.2 0.00 0.00 0.00 82 1009.7
20260504041804 89 58 5.2 6.1 0.00 0.00 0.00 82 1009.6
20260504041704 90 52 6.1 5.2 0.00 0.00 0.00 81 1009.6
20260504041604 90 47 5.2 3.5 0.00 0.00 0.00 78 1009.6
20260504041510 90 62 3.5 1.7 0.00 0.00 0.00 76 1009.6
20260504041404 90 82 1.7 1.7 0.00 0.00 0.00 75 1009.6
20260504041306 90 107 1.7 0.0 0.00 0.00 0.00 75 1009.6
20260504041204 90 113 0.0 1.7 0.00 0.00 0.00 75 1009.6
20260504041104 91 135 1.7 0.0 0.00 0.00 0.00 75 1009.6
20260504041004 91 89 0.0 0.0 0.00 0.00 0.00 75 1009.6
20260504040904 91 116 0.0 0.9 0.00 0.00 0.00 75 1009.7
20260504040804 91 118 0.9 0.0 0.00 0.00 0.00 75 1009.7
20260504040704 91 196 0.0 0.9 0.00 0.00 0.00 76 1009.7
20260504040604 91 262 0.9 2.6 0.00 0.00 0.00 75 1009.7
20260504040504 91 262 2.6 2.6 0.00 0.00 0.00 75 1009.7
20260504040404 91 253 3.5 2.6 0.00 0.00 0.00 74 1009.7
20260504040303 91 281 2.6 1.7 0.00 0.00 0.00 75 1009.7
20260504040203 91 242 1.7 0.9 0.00 0.00 0.00 75 1009.7
20260504040103 91 230 0.9 0.0 0.00 0.00 0.00 75 1009.7
20260504040005 91 191 0.0 2.6 0.00 0.00 0.00 75 1009.7
20260504035903 91 191 2.6 2.6 0.00 0.00 0.00 75 1009.7
20260504035804 91 148 2.6 3.5 0.00 0.00 0.00 75 1009.7
20260504035703 91 111 3.5 3.5 0.00 0.00 0.00 74 1009.7
20260504035603 91 147 3.5 0.9 0.00 0.00 0.00 74 1009.7
20260504035504 91 137 0.9 1.7 0.00 0.00 0.00 74 1009.7
20260504035405 91 78 3.5 3.5 0.00 0.00 0.00 73 1009.7
20260504035305 92 106 3.5 3.5 0.00 0.00 0.00 74 1009.7
20260504035203 92 113 3.5 4.3 0.00 0.00 0.00 73 1009.7
20260504035103 92 113 4.3 2.6 0.00 0.00 0.00 73 1009.8
20260504035003 92 125 2.6 0.0 0.00 0.00 0.00 73 1009.8
20260504034906 92 163 0.0 0.9 0.00 0.00 0.00 73 1009.8
20260504034803 92 237 0.9 1.7 0.00 0.00 0.00 73 1009.8
20260504034703 92 237 1.7 0.0 0.00 0.00 0.00 74 1009.8
20260504034603 91 217 0.0 0.0 0.00 0.00 0.00 75 1009.8
20260504034503 91 141 0.0 3.5 0.00 0.00 0.00 73 1009.8
20260504034415 91 79 0.9 2.6 0.00 0.00 0.00 73 1009.9
20260504034303 91 78 2.6 3.5 0.00 0.00 0.00 74 1009.9
20260504034203 91 148 3.5 2.6 0.00 0.00 0.00 74 1009.9
20260504034103 91 138 2.6 1.7 0.00 0.00 0.00 76 1009.9
20260504034003 91 187 1.7 2.6 0.00 0.00 0.00 75 1009.9
20260504033903 91 193 2.6 3.5 0.00 0.00 0.00 74 1009.9
20260504033803 91 141 3.5 3.5 0.00 0.00 0.00 76 1009.9
20260504033703 91 172 3.5 2.6 0.00 0.00 0.00 76 1009.9
20260504033603 91 134 2.6 2.6 0.00 0.00 0.00 76 1009.9
20260504033503 91 187 2.6 2.6 0.00 0.00 0.00 77 1009.9
20260504033403 90 179 4.3 4.3 0.00 0.00 0.00 77 1009.9
20260504033334 90 180 4.3 1.7 0.00 0.00 0.00 77 1009.9
20260504033243 90 164 1.7 2.6 0.00 0.00 0.00 77 1009.9
20260504033126 90 184 2.6 2.6 0.00 0.00 0.00 76 1009.9
20260504033026 90 203 2.6 3.5 0.00 0.00 0.00 77 1009.9
20260504032903 90 170 3.5 2.6 0.00 0.00 0.00 78 1009.9
20260504032805 90 134 2.6 3.5 0.00 0.00 0.00 79 1009.9
20260504032703 90 165 3.5 2.6 0.00 0.00 0.00 79 1009.9
20260504032603 90 157 2.6 3.5 0.00 0.00 0.00 78 1009.9
20260504032503 90 142 3.5 1.7 0.00 0.00 0.00 78 1009.9
20260504032406 90 163 1.7 3.5 0.00 0.00 0.00 79 1009.9
20260504032304 90 189 3.5 4.3 0.00 0.00 0.00 79 1010.0
20260504032203 90 184 4.3 2.6 0.00 0.00 0.00 78 1010.0
20260504032103 90 174 2.6 1.7 0.00 0.00 0.00 79 1010.0
20260504032003 90 145 1.7 0.9 0.00 0.00 0.00 79 1010.0
20260504031903 90 73 0.9 0.9 0.00 0.00 0.00 80 1010.0
20260504031803 90 116 0.9 0.9 0.00 0.00 0.00 80 1010.0
20260504031703 90 24 0.9 0.0 0.00 0.00 0.00 79 1010.0
20260504031603 90 24 0.0 0.9 0.00 0.00 0.00 80 1010.0
20260504031536 90 149 0.9 2.6 0.00 0.00 0.00 80 1010.1
20260504031403 90 149 2.6 2.6 0.00 0.00 0.00 80 1010.1
20260504031303 90 136 2.6 3.5 0.00 0.00 0.00 80 1010.1
20260504031203 90 147 3.5 1.7 0.00 0.00 0.00 79 1010.1
20260504031103 90 145 1.7 2.6 0.00 0.00 0.00 81 1010.1
20260504031003 90 89 2.6 0.9 0.00 0.00 0.00 80 1010.1
20260504030903 89 202 0.9 1.7 0.00 0.00 0.00 81 1010.1
20260504030803 89 193 1.7 3.5 0.00 0.00 0.00 80 1010.1
20260504030703 89 170 3.5 1.7 0.00 0.00 0.00 80 1010.1
20260504030603 89 144 1.7 1.7 0.00 0.00 0.00 81 1010.1
20260504030503 89 148 1.7 1.7 0.00 0.00 0.00 80 1010.1
20260504030403 89 151 3.5 4.3 0.00 0.00 0.00 79 1010.1
20260504030303 89 153 4.3 4.3 0.00 0.00 0.00 80 1010.1
20260504030203 89 152 4.3 2.6 0.00 0.00 0.00 82 1010.1
20260504030009 89 67 1.7 3.5 0.00 0.00 0.00 81 1010.2
20260504025903 89 119 3.5 1.7 0.00 0.00 0.00 82 1010.2
20260504025803 89 151 1.7 1.7 0.00 0.00 0.00 83 1010.2
20260504025703 89 176 1.7 0.9 0.00 0.00 0.00 83 1010.2
20260504025603 88 188 0.9 1.7 0.00 0.00 0.00 84 1010.2
20260504025503 88 168 1.7 2.6 0.00 0.00 0.00 84 1010.2
20260504025403 88 163 3.5 0.9 0.00 0.00 0.00 84 1010.2
20260504025304 88 175 0.9 1.7 0.00 0.00 0.00 84 1010.2
20260504025203 88 138 1.7 2.6 0.00 0.00 0.00 82 1010.2
20260504025103 88 132 2.6 2.6 0.00 0.00 0.00 83 1010.2
20260504025003 89 98 2.6 3.5 0.00 0.00 0.00 83 1010.2
20260504024903 88 111 3.5 1.7 0.00 0.00 0.00 83 1010.2
20260504024803 88 129 1.7 2.6 0.00 0.00 0.00 84 1010.2
20260504024703 88 133 2.6 3.5 0.00 0.00 0.00 84 1010.2
20260504024603 88 52 3.5 2.6 0.00 0.00 0.00 84 1010.2
20260504024517 88 70 2.6 2.6 0.00 0.00 0.00 84 1010.2
20260504024403 88 79 2.6 1.7 0.00 0.00 0.00 83 1010.2
20260504024305 88 102 1.7 3.5 0.00 0.00 0.00 85 1010.2
20260504024203 88 75 3.5 4.3 0.00 0.00 0.00 85 1010.2
20260504024108 88 77 4.3 3.5 0.00 0.00 0.00 85 1010.2
20260504024003 88 64 3.5 4.3 0.00 0.00 0.00 85 1010.2
20260504023904 88 87 4.3 3.5 0.00 0.00 0.00 85 1010.2
20260504023803 88 94 3.5 0.9 0.00 0.00 0.00 85 1010.2
20260504023703 88 112 0.9 3.5 0.00 0.00 0.00 85 1010.2
20260504023603 88 150 3.5 1.7 0.00 0.00 0.00 84 1010.2
20260504023503 88 118 1.7 1.7 0.00 0.00 0.00 86 1010.2
20260504023403 88 152 1.7 1.7 0.00 0.00 0.00 86 1010.2
20260504023303 88 173 1.7 2.6 0.00 0.00 0.00 86 1010.2
20260504023203 88 138 2.6 2.6 0.00 0.00 0.00 85 1010.2
20260504023103 88 161 2.6 3.5 0.00 0.00 0.00 85 1010.2
20260504023030 88 167 3.5 1.7 0.00 0.00 0.00 85 1010.2
20260504022905 88 164 1.7 1.7 0.00 0.00 0.00 85 1010.2
20260504022803 88 97 1.7 3.5 0.00 0.00 0.00 86 1010.2
20260504022703 88 123 3.5 0.9 0.00 0.00 0.00 86 1010.2
20260504022603 88 121 0.9 0.0 0.00 0.00 0.00 86 1010.2
20260504022503 88 150 0.0 0.9 0.00 0.00 0.00 86 1010.3
20260504022403 87 128 2.6 1.7 0.00 0.00 0.00 86 1010.3
20260504022304 87 85 1.7 2.6 0.00 0.00 0.00 87 1010.3
20260504022203 87 130 2.6 2.6 0.00 0.00 0.00 87 1010.3
20260504022103 87 133 2.6 0.9 0.00 0.00 0.00 88 1010.3
20260504022003 87 130 0.9 1.7 0.00 0.00 0.00 88 1010.3
20260504021903 87 199 1.7 2.6 0.00 0.00 0.00 88 1010.3
20260504021803 87 223 2.6 1.7 0.00 0.00 0.00 87 1010.3
20260504021703 87 231 1.7 3.5 0.00 0.00 0.00 88 1010.3
20260504021604 87 228 3.5 1.7 0.00 0.00 0.00 87 1010.3
20260504021405 87 191 0.0 0.9 0.00 0.00 0.00 89 1010.3
20260504021303 87 191 0.9 1.7 0.00 0.00 0.00 89 1010.3
20260504021203 87 204 1.7 2.6 0.00 0.00 0.00 88 1010.3
20260504021103 87 206 2.6 1.7 0.00 0.00 0.00 89 1010.3
20260504021003 87 215 1.7 0.9 0.00 0.00 0.00 88 1010.3
20260504020920 87 214 0.9 0.0 0.00 0.00 0.00 89 1010.3
20260504020704 86 126 0.0 0.0 0.00 0.00 0.00 89 1010.3
20260504020603 86 126 0.0 0.0 0.00 0.00 0.00 89 1010.3
20260504020502 86 125 0.0 0.0 0.00 0.00 0.00 89 1010.3
20260504020402 86 125 0.9 0.0 0.00 0.00 0.00 89 1010.3
20260504020303 86 134 0.0 0.0 0.00 0.00 0.00 90 1010.3
20260504020203 86 134 0.0 2.6 0.00 0.00 0.00 90 1010.3
20260504020006 86 157 0.9 1.7 0.00 0.00 0.00 90 1010.3
20260504015903 86 160 1.7 2.6 0.00 0.00 0.00 90 1010.3
20260504015802 86 150 2.6 1.7 0.00 0.00 0.00 90 1010.3
20260504015702 86 164 1.7 0.0 0.00 0.00 0.00 90 1010.3
20260504015353 86 251 0.9 2.6 0.00 0.00 0.00 90 1010.2
20260504015253 86 241 2.6 3.5 0.00 0.00 0.00 89 1010.2
20260504015153 86 231 3.5 1.7 0.00 0.00 0.00 90 1010.2
20260504015056 86 234 1.7 0.9 0.00 0.00 0.00 90 1010.2
20260504014953 86 211 0.9 3.5 0.00 0.00 0.00 90 1010.1
20260504014853 86 221 3.5 0.9 0.00 0.00 0.00 90 1010.1
20260504014753 86 218 0.9 0.0 0.00 0.00 0.00 91 1010.1
20260504014653 86 119 0.0 0.0 0.00 0.00 0.00 92 1010.1
20260504014453 86 119 0.0 0.9 0.00 0.00 0.00 92 1010.1
20260504014353 85 161 0.9 0.9 0.00 0.00 0.00 93 1010.0
20260504014253 85 207 0.9 0.9 0.00 0.00 0.00 92 1010.0
20260504014155 85 219 0.9 1.7 0.00 0.00 0.00 92 1010.0
20260504014053 85 223 1.7 0.9 0.00 0.00 0.00 93 1010.0
20260504013953 85 215 0.9 0.0 0.00 0.00 0.00 94 1010.0
20260504013853 85 196 0.0 0.0 0.00 0.00 0.00 94 1010.0
20260504013753 85 227 0.0 0.0 0.00 0.00 0.00 94 1009.9
20260504013657 85 198 0.0 0.0 0.00 0.00 0.00 94 1009.9
20260504013553 84 194 0.0 0.9 0.00 0.00 0.00 94 1009.9
20260504013453 84 203 0.9 0.0 0.00 0.00 0.00 95 1009.9
20260504013353 84 202 0.9 0.9 0.00 0.00 0.00 94 1009.9
20260504013306 84 199 0.9 0.0 0.00 0.00 0.00 94 1009.9
20260504013153 84 207 0.0 0.0 0.00 0.00 0.00 95 1009.9
20260504013106 84 178 0.0 0.0 0.00 0.00 0.00 96 1009.9
20260504012953 84 182 0.0 0.0 0.00 0.00 0.00 96 1009.9
20260504012853 84 236 0.0 1.7 0.00 0.00 0.00 96 1009.9
20260504012753 84 238 1.7 0.9 0.00 0.00 0.00 96 1009.9
20260504012653 84 205 0.9 1.7 0.00 0.00 0.00 95 1009.9
20260504012553 84 214 1.7 0.0 0.00 0.00 0.00 96 1009.9
20260504012453 84 191 0.0 0.0 0.00 0.00 0.00 96 1009.9
20260504012353 84 203 0.0 0.0 0.00 0.00 0.00 98 1009.9
20260504012253 83 237 0.0 0.0 0.00 0.00 0.00 98 1009.9
20260504012153 83 215 0.0 0.0 0.00 0.00 0.00 98 1009.9
20260504012053 83 187 0.0 0.0 0.00 0.00 0.00 99 1009.9
20260504011953 83 186 0.0 0.0 0.00 0.00 0.00 99 1009.9
20260504011853 83 248 0.0 0.0 0.00 0.00 0.00 99 1009.9
20260504011753 83 248 0.0 0.0 0.00 0.00 0.00 99 1009.9
20260504011653 83 248 0.0 0.0 0.00 0.00 0.00 99 1009.9
20260504011558 82 197 0.0 0.0 0.00 0.00 0.00 99 1009.9
20260504011453 82 195 0.0 0.0 0.00 0.00 0.00 99 1009.9
20260504011353 82 195 0.0 0.0 0.00 0.00 0.00 99 1009.9
20260504011253 82 207 0.0 0.0 0.00 0.00 0.00 99 1009.9
20260504011154 82 205 0.0 0.9 0.00 0.00 0.00 99 1009.9
20260504011053 82 218 0.9 0.0 0.00 0.00 0.00 99 1009.9
20260504010953 82 222 0.0 0.0 0.00 0.00 0.00 99 1009.9
20260504010910 82 224 0.0 0.0 0.00 0.00 0.00 99 1009.9
20260504010754 82 222 0.0 0.0 0.00 0.00 0.00 99 1009.8
20260504010653 82 221 0.0 0.0 0.00 0.00 0.00 99 1009.8
20260504010553 82 209 0.0 0.0 0.00 0.00 0.00 99 1009.8
20260504010453 82 243 0.0 0.0 0.00 0.00 0.00 99 1009.8
20260504010353 82 243 0.0 0.0 0.00 0.00 0.00 99 1009.8
20260504010253 81 243 0.0 0.0 0.00 0.00 0.00 99 1009.8
20260504010153 81 243 0.0 0.0 0.00 0.00 0.00 99 1009.8
20260504010053 81 243 0.0 0.0 0.00 0.00 0.00 99 1009.8
20260504005953 81 243 0.0 0.0 0.00 0.00 0.00 99 1009.8
20260504005855 81 243 0.0 0.0 0.00 0.00 0.00 99 1009.8
20260504005755 81 224 0.0 0.0 0.00 0.00 0.00 99 1009.8
20260504005653 81 233 0.0 0.0 0.00 0.00 0.00 99 1009.8
20260504005555 81 219 0.0 0.0 0.00 0.00 0.00 99 1009.8
20260504004817 80 203 0.0 0.0 0.00 0.00 0.00 99 1009.4
20260504004718 80 202 0.0 0.0 0.00 0.00 0.00 99 1009.4
20260504004617 80 202 0.0 0.0 0.00 0.00 0.00 99 1009.4
20260504004523 80 214 0.0 0.0 0.00 0.00 0.00 99 1009.4
20260504004417 80 214 0.0 0.0 0.00 0.00 0.00 99 1009.4
20260504004317 80 214 0.0 0.0 0.00 0.00 0.00 99 1009.4
20260504004217 80 213 0.0 0.0 0.00 0.00 0.00 99 1009.3
20260504004117 80 213 0.0 0.0 0.00 0.00 0.00 99 1009.3
20260504004017 80 269 0.0 0.0 0.00 0.00 0.00 99 1009.3
20260504003917 80 269 0.0 0.0 0.00 0.00 0.00 99 1009.3
20260504003817 80 269 0.0 0.0 0.00 0.00 0.00 99 1009.3
20260504003717 79 274 0.0 0.0 0.00 0.00 0.00 99 1009.3
20260504003617 79 276 0.0 0.0 0.00 0.00 0.00 99 1009.3
20260504003517 79 276 0.0 0.0 0.00 0.00 0.00 99 1009.3
20260504003417 79 276 0.0 0.0 0.00 0.00 0.00 99 1009.3
20260504003317 79 276 0.0 0.0 0.00 0.00 0.00 99 1009.2
20260504003217 79 276 0.0 0.0 0.00 0.00 0.00 99 1009.2
20260504003117 79 276 0.0 0.9 0.00 0.00 0.00 99 1009.2
20260504003033 79 276 0.0 0.0 0.00 0.00 0.00 99 1009.2
20260504002917 79 276 0.0 0.0 0.00 0.00 0.00 99 1009.2
20260504002817 79 276 0.0 0.0 0.00 0.00 0.00 99 1009.2
20260504002717 79 276 0.0 0.0 0.00 0.00 0.00 99 1009.2
20260504002617 79 276 0.0 0.0 0.00 0.00 0.00 99 1009.1
20260504002517 79 276 0.0 0.0 0.00 0.00 0.00 99 1009.1
20260504002417 78 276 0.0 0.0 0.00 0.00 0.00 99 1009.1
20260504002317 78 276 0.0 0.0 0.00 0.00 0.00 99 1009.1
20260504002217 78 276 0.0 0.0 0.00 0.00 0.00 99 1009.1
20260504002117 78 276 0.0 2.6 0.00 0.00 0.00 99 1009.1
20260504002017 78 276 0.0 0.0 0.00 0.00 0.00 99 1009.1
20260504001917 78 276 0.0 1.7 0.00 0.00 0.00 99 1009.0
20260504001817 78 279 1.7 1.7 0.00 0.00 0.00 99 1009.0
20260504001717 78 279 1.7 1.7 0.00 0.00 0.00 99 1009.0
20260504001617 78 279 1.7 0.9 0.00 0.00 0.00 99 1009.0
20260504001517 78 282 0.9 1.7 0.00 0.00 0.00 99 1009.0
20260504001417 78 282 1.7 2.6 0.00 0.00 0.00 99 1009.0
20260504001319 78 282 2.6 2.6 0.00 0.00 0.00 99 1009.0
20260504001217 78 292 2.6 2.6 0.00 0.00 0.00 99 1009.0
20260504001117 78 283 2.6 1.7 0.00 0.00 0.00 99 1009.0
20260504001019 78 269 1.7 2.6 0.00 0.00 0.00 99 1008.9
20260504000917 78 277 2.6 3.5 0.00 0.00 0.00 99 1008.9
20260504000819 78 280 3.5 3.5 0.00 0.00 0.00 99 1008.9
20260504000717 78 276 3.5 3.5 0.00 0.00 0.00 99 1008.9
20260504000617 78 283 3.5 3.5 0.00 0.00 0.00 99 1008.9
20260504000517 78 278 3.5 2.6 0.00 0.00 0.00 99 1008.9
20260504000417 78 278 2.6 2.6 0.00 0.00 0.00 99 1008.8
20260504000317 78 278 2.6 1.7 0.00 0.00 0.00 99 1008.8
20260504000219 78 279 1.7 1.7 0.00 0.00 0.00 99 1008.8
20260504000117 78 271 1.7 1.7 0.00 0.00 0.00 99 1008.8
20260504000021 78 281 2.6 2.6 0.00 0.00 0.00 99 1008.7
20260503235917 78 282 2.6 0.9 0.00 0.00 0.00 99 1008.7
20260503235817 77 286 0.9 1.7 0.00 0.00 0.00 99 1008.7
20260503235717 77 286 1.7 1.7 0.00 0.00 0.00 99 1008.7
20260503235617 77 286 1.7 1.7 0.00 0.00 0.00 99 1008.7
20260503235517 77 294 1.7 1.7 0.00 0.00 0.00 99 1008.7
20260503235417 77 294 1.7 1.7 0.00 0.00 0.00 99 1008.7
20260503235317 77 294 1.7 1.7 0.00 0.00 0.00 99 1008.6
20260503235217 77 293 1.7 1.7 0.00 0.00 0.00 99 1008.6
20260503235117 77 270 1.7 2.6 0.00 0.00 0.00 99 1008.6
20260503235017 77 270 1.7 1.7 0.00 0.00 0.00 99 1008.6
20260503234930 77 270 1.7 1.7 0.00 0.00 0.00 99 1008.6
20260503234817 77 266 1.7 2.6 0.00 0.00 0.00 99 1008.5
20260503234717 77 266 2.6 1.7 0.00 0.00 0.00 99 1008.5
20260503234617 77 266 1.7 2.6 0.00 0.00 0.00 99 1008.5
20260503234534 77 258 2.6 2.6 0.00 0.00 0.00 99 1008.5
20260503234417 77 258 2.6 2.6 0.00 0.00 0.00 99 1008.5
20260503234317 77 259 2.6 3.5 0.00 0.00 0.00 99 1008.5
20260503234217 77 256 3.5 2.6 0.00 0.00 0.00 99 1008.4
20260503234117 77 257 2.6 2.6 0.00 0.00 0.00 99 1008.4
20260503234017 77 255 2.6 3.5 0.00 0.00 0.00 99 1008.4
20260503233917 77 247 3.5 2.6 0.00 0.00 0.00 99 1008.4
20260503233817 77 257 2.6 2.6 0.00 0.00 0.00 99 1008.4
20260503233718 77 249 2.6 1.7 0.00 0.00 0.00 99 1008.4
20260503233617 77 249 1.7 1.7 0.00 0.00 0.00 99 1008.3
20260503233517 77 248 1.7 2.6 0.00 0.00 0.00 99 1008.3
20260503233417 77 257 2.6 2.6 0.00 0.00 0.00 99 1008.3
20260503233317 77 257 2.6 2.6 0.00 0.00 0.00 99 1008.3
20260503233217 77 268 2.6 2.6 0.00 0.00 0.00 99 1008.3
20260503233117 77 250 2.6 1.7 0.00 0.00 0.00 99 1008.3
20260503233024 77 258 2.6 2.6 0.00 0.00 0.00 99 1008.3
20260503232917 77 250 2.6 2.6 0.00 0.00 0.00 99 1008.2
20260503232817 77 257 2.6 2.6 0.00 0.00 0.00 99 1008.2
20260503232717 77 265 2.6 2.6 0.00 0.00 0.00 99 1008.2
20260503232617 77 265 2.6 3.5 0.00 0.00 0.00 99 1008.2
20260503232519 77 270 3.5 2.6 0.00 0.00 0.00 99 1008.2
20260503232417 77 275 2.6 3.5 0.00 0.00 0.00 99 1008.2
20260503232317 77 285 3.5 2.6 0.00 0.00 0.00 99 1008.2
20260503232217 77 285 2.6 2.6 0.00 0.00 0.00 99 1008.2